Regional Weather Roundup
Issued by NWS

Home | Current Version | Previous Version | Text Only | Print | Product List | Glossary Off
Versions: 1 2 3 4 5 6 7 8 9 10 11 12 13 14 15 16 17 18 19 20 21 22 23 24 25 26 27 28 29 30 31 32 33 34 35 36 37 38 39 40 41 42 43 44 45 46 47 48 49 50

000
ASUS43 KBIS 241010
RWRND

NORTH DAKOTA REGIONAL WEATHER ROUNDUP
NATIONAL WEATHER SERVICE BISMARCK ND
400 AM CST FRI FEB 24 2017

NOTE: "FAIR" INDICATES FEW OR NO CLOUDS BELOW 12,000 FEET WITH NO
SIGNIFICANT WEATHER AND/OR OBSTRUCTIONS TO VISIBILITY.


NDZ001>003-009>011-017-241100-
NORTHWEST NORTH DAKOTA

CITY           SKY/WX    TMP DP  RH WIND       PRES   REMARKS
WILLISTON      CLOUDY    14  11  87 CALM      30.14F
MINOT          FAIR      23  18  81 NW9       30.12S WCI  13
$$

NDZ018>021-031>035-040>046-241100-
SOUTHWEST NORTH DAKOTA

CITY           SKY/WX    TMP DP  RH WIND       PRES   REMARKS
BISMARCK       FAIR      15  11  83 W3        30.13F
DICKINSON      FAIR       7   3  84 SW3       30.07F
GARRISON         N/A     16  12  84 W5        30.12F WCI   9
HETTINGER ARPT CLOUDY    12   8  84 N7        30.08F WCI   1
$$

NDZ004>008-012>016-024-026-027-054-241100-
NORTHEAST NORTH DAKOTA

CITY           SKY/WX    TMP DP  RH WIND       PRES   REMARKS
GRAND FORKS    CLOUDY    17  10  74 N8        30.13F WCI   7
GRND FRKS AFB  CLOUDY    18  13  80 N8        30.13F WCI   7
DEVILS LAKE    CLOUDY    18  14  84 W6        30.11F WCI  10
$$

NDZ022-023-025-028>030-036>039-047>053-241100-
SOUTHEAST NORTH DAKOTA

CITY           SKY/WX    TMP DP  RH WIND       PRES   REMARKS
FARGO          PTCLDY    20  12  71 N14       30.09R WCI   7
JAMESTOWN      FAIR      18  15  88 N13       30.07F WCI   5
$$





USA.gov is the U.S. government's official web portal to all federal, state and local government web resources and services.